Wind_Speed
4 5 6 6 6 6 4 1 4 4 5 5 5 6 6 6 6 7 7 7 6 5 5 5 6 5 5 6 5 5 5 6 6 6 5 4 4 4 3 3 3 2 2 1 2 3 3 3 3
4 4 5 4 4 4 1 3 4 5 7 6 6 6 6 7 7 7 7 7 6 6 6 6 6 6 6 6 6 6 6 6 6 6 5 4 4 4 3 3 3 3 2 2 2 3 3 4 4
4 4 3 2 4 2 3 5 6 7 6 7 7 7 7 7 7 7 8 8 7 7 7 6 6 6 6 6 6 6 6 6 6 6 5 4 4 4 4 4 4 4 3 2 3 3 4 4 3
5 3 2 2 1 2 5 6 7 7 6 6 7 7 8 8 8 8 8 9 8 8 7 7 7 6 6 6 6 6 6 7 6 6 5 5 5 5 5 5 5 4 3 3 3 4 4 4 3
5 4 3 1 2 4 8 10 9 7 6 6 8 8 9 8 8 8 9 9 8 8 8 7 7 6 6 6 7 7 7 7 7 7 6 6 5 5 5 5 5 4 4 4 4 5 5 5 4
6 5 3 4 4 8 10 10 9 8 7 7 8 8 9 9 9 9 9 9 9 9 10 8 7 7 6 7 7 7 7 7 7 7 7 7 6 6 5 4 4 4 5 5 5 6 6 6 6
7 6 5 4 5 10 11 10 8 8 7 8 9 10 9 9 10 10 10 9 10 9 9 9 8 7 7 7 6 7 7 7 7 8 8 7 7 6 5 4 4 5 6 6 6 6 6 6 6
7 7 7 4 6 11 13 10 9 9 9 9 10 10 9 9 10 10 10 9 10 10 9 9 8 8 8 8 7 7 8 8 8 8 8 8 7 6 6 6 6 5 6 7 7 6 6 6 6
9 9 7 6 7 10 13 10 10 9 9 9 11 11 10 11 10 10 10 10 11 10 10 9 9 9 9 9 9 9 9 9 9 9 9 9 9 8 7 7 7 7 7 7 7 7 7 8 7
9 9 8 9 10 11 12 10 10 10 9 11 12 11 11 11 11 11 11 11 11 11 11 11 11 10 10 10 10 10 9 10 9 9 9 10 10 9 8 8 8 8 8 8 8 8 9 9 8
10 10 9 10 12 12 12 11 12 11 10 11 12 12 11 11 11 12 12 12 11 12 12 12 12 11 11 11 10 10 11 11 10 10 10 10 11 11 9 8 8 8 9 9 9 9 9 9 9
11 11 10 12 13 13 12 12 12 11 11 13 13 13 10 12 13 12 12 12 11 11 12 12 12 11 12 12 11 11 12 12 11 11 11 11 11 11 9 9 8 8 9 9 9 9 9 10 10
13 13 12 13 13 13 13 13 13 13 12 13 14 13 12 13 13 13 13 12 12 12 12 13 13 13 13 13 13 13 13 13 13 12 12 12 11 11 10 9 9 9 9 9 9 9 9 10 9
15 15 15 14 14 14 14 14 14 13 13 14 15 15 15 14 14 14 13 13 13 13 13 13 13 13 13 13 14 14 14 14 13 13 12 11 11 11 10 10 9 9 9 9 9 9 9 9 10
16 16 16 15 15 15 15 14 14 14 14 16 15 15 16 15 15 15 15 14 14 13 13 13 14 14 14 14 15 15 15 15 15 14 13 12 12 11 10 10 9 9 9 10 9 9 9 9 10
16 16 17 15 15 15 16 15 14 16 15 17 17 16 17 17 17 16 16 16 14 14 13 14 14 15 15 15 16 15 16 16 16 14 13 13 12 11 11 10 10 10 10 10 10 10 10 10 10
17 17 16 15 16 16 17 15 15 16 17 17 18 17 17 18 18 17 17 17 15 15 14 14 15 15 16 16 17 16 17 17 15 14 13 13 12 11 11 11 10 11 11 11 11 11 11 11 10
17 16 16 16 17 18 18 17 17 17 17 17 18 18 18 18 18 18 17 17 16 15 15 14 15 15 16 17 18 18 17 16 15 15 14 13 12 11 11 10 10 11 11 12 11 11 10 10 10
19 17 17 17 18 20 19 18 18 18 18 17 18 19 19 19 19 17 17 17 16 16 16 16 16 16 17 17 18 19 18 16 15 14 13 12 11 11 10 10 11 12 12 12 11 11 11 10 10
21 20 19 18 19 20 20 20 20 19 19 18 19 20 20 20 21 19 17 17 17 17 17 17 18 18 18 18 18 18 17 16 15 14 13 13 12 11 10 11 11 12 12 11 11 11 11 11 11
23 22 21 20 20 21 21 21 21 20 20 19 19 19 20 21 20 18 18 18 18 18 17 17 18 18 19 19 19 18 16 15 15 15 14 13 12 12 12 12 12 11 11 11 11 12 12 12 13
24 22 22 21 20 21 20 21 20 20 21 21 21 20 20 21 21 20 18 19 19 19 19 18 18 18 19 19 18 17 17 16 15 15 13 13 12 12 12 12 11 11 11 12 12 12 13 13 13
23 21 20 20 21 23 20 21 20 20 22 22 21 20 19 21 20 21 20 19 20 19 19 19 18 18 18 18 17 16 16 15 15 15 13 13 13 12 12 11 11 11 11 12 12 12 12 13 12
23 21 20 20 21 23 20 20 22 21 22 23 23 20 20 21 20 21 22 20 20 20 19 18 18 18 18 17 16 16 16 15 15 14 14 13 13 13 12 11 11 12 11 11 11 11 11 11 12
24 22 20 20 21 21 18 20 22 22 22 22 23 21 21 19 20 21 21 20 20 20 19 19 19 19 18 18 17 17 16 15 15 14 14 14 14 13 12 12 12 11 11 11 11 10 11 11 11
24 23 22 21 19 18 18 20 21 21 24 24 22 22 22 20 20 21 21 20 20 20 20 19 19 19 19 18 17 17 16 15 15 14 14 14 14 13 12 12 12 11 11 11 11 11 10 11 11
23 24 22 22 20 21 19 18 21 21 22 23 22 23 22 21 20 21 21 20 20 20 20 19 18 19 19 18 17 17 17 16 15 15 15 14 14 14 13 12 12 12 12 11 11 11 11 11 11
25 23 23 24 22 22 19 19 21 20 20 22 23 23 22 20 21 21 20 20 19 19 20 20 19 18 18 18 18 17 17 16 16 16 15 15 15 14 13 13 12 12 12 11 11 11 11 12 11
24 24 25 24 23 22 20 20 22 23 23 22 22 21 21 21 21 20 20 19 19 18 19 19 19 19 18 18 18 17 17 16 16 16 15 15 14 14 13 13 13 12 12 12 12 12 12 12 12
25 26 25 25 24 24 22 21 20 21 22 22 23 22 22 21 21 20 20 19 19 19 19 18 20 20 19 19 18 18 17 16 16 15 15 16 15 15 14 15 14 14 14 14 13 13 13 13 13
Wind_Direction
125 117 114 114 104 79 69 22 299 303 301 308 309 310 326 324 329 325 326 328 329 332 333 331 327 325 321 318 321 323 324 322 315 308 301 288 274 262 260 257 247 243 235 224 202 186 179 180 187
136 141 127 110 86 72 336 289 289 294 307 308 305 311 317 321 328 330 328 331 331 332 329 325 325 323 319 315 314 317 321 319 311 306 302 294 281 268 267 265 253 246 239 226 220 217 200 199 206
161 164 120 88 48 15 296 285 292 297 307 305 307 317 318 323 327 331 330 331 330 330 328 322 324 323 320 317 315 314 317 317 313 309 306 306 297 286 278 270 257 249 245 242 245 235 218 214 215
176 174 138 76 25 289 278 279 288 296 302 306 307 310 314 321 324 328 331 333 336 336 334 325 323 320 321 322 322 321 319 316 316 314 310 309 302 293 289 274 257 253 247 251 255 246 232 230 228
188 185 163 211 258 278 279 279 278 281 293 301 304 307 311 322 323 328 332 336 339 337 338 332 327 324 320 321 322 323 321 316 314 313 309 306 301 298 301 282 250 246 247 249 250 250 243 238 237
202 198 195 222 252 262 267 273 278 282 291 291 296 306 312 320 323 326 329 334 338 338 338 334 333 330 322 320 321 321 321 319 316 313 307 301 300 297 297 280 253 251 248 255 250 249 246 242 240
216 211 216 230 249 267 270 271 279 287 295 286 287 300 305 316 320 323 327 332 333 336 337 337 341 341 332 326 324 323 320 319 316 312 307 297 292 291 285 274 263 257 256 258 259 253 250 247 242
221 225 226 224 248 265 272 274 277 277 284 284 286 294 303 319 320 323 324 324 326 330 331 330 336 339 336 332 327 324 320 316 313 308 306 298 289 287 280 271 267 262 265 265 269 264 256 248 243
224 233 229 215 240 256 268 275 268 269 278 281 285 292 307 317 317 319 320 318 321 324 326 326 328 328 329 329 325 320 318 313 310 304 300 296 291 286 278 272 267 264 266 268 267 259 254 251 249
228 235 232 227 237 247 260 262 264 269 276 284 288 296 305 312 313 314 314 316 317 319 324 324 323 324 324 326 323 319 316 312 308 304 298 294 290 286 280 272 268 268 266 267 266 260 256 253 251
236 238 238 241 244 246 248 253 261 264 267 268 278 288 298 307 311 312 313 315 315 315 317 321 322 322 324 324 324 322 320 318 310 305 301 297 295 293 287 278 275 272 267 264 266 262 256 252 252
240 239 241 244 248 249 249 253 254 258 261 270 276 281 289 298 304 309 309 313 315 315 316 319 318 320 320 321 321 320 319 318 315 308 302 299 297 295 288 279 278 279 272 266 265 264 262 259 257
243 244 245 248 249 250 254 257 261 259 257 265 277 285 290 293 299 305 306 311 315 316 315 315 317 317 317 318 318 318 318 316 314 312 305 299 297 294 289 285 281 279 275 271 270 271 267 263 262
244 246 247 254 260 260 260 261 262 262 262 264 272 280 286 288 294 301 303 305 309 311 310 310 313 316 318 318 317 316 316 315 316 314 309 300 296 294 292 288 285 280 278 273 272 270 268 266 263
244 250 251 253 261 261 259 260 262 261 259 266 271 275 281 285 290 294 299 300 303 306 306 307 309 313 316 318 317 317 316 315 315 313 309 303 299 296 296 292 287 285 284 281 276 275 271 269 269
244 250 256 261 266 264 262 263 261 259 259 265 270 273 277 282 285 288 292 293 299 304 305 306 307 310 311 315 316 315 315 313 312 311 307 304 300 299 296 293 288 284 285 283 280 279 273 274 274
249 254 260 263 263 265 265 265 258 260 262 267 272 274 276 277 282 285 288 291 295 299 301 304 305 308 310 312 314 312 313 311 310 309 306 302 300 298 295 292 286 285 283 284 282 282 278 273 271
247 251 258 261 262 262 264 264 260 260 262 265 270 276 276 276 279 283 286 290 292 297 299 301 302 305 310 312 314 313 311 308 308 309 308 304 302 299 296 291 288 286 285 287 287 282 277 272 270
243 243 248 250 254 261 263 258 259 263 261 264 269 273 277 276 278 278 284 288 290 292 296 299 301 303 308 312 313 313 311 308 308 309 309 306 302 299 295 294 292 294 291 285 282 282 279 276 273
243 244 244 242 245 254 263 260 257 258 261 264 267 273 276 278 279 278 281 286 288 289 292 297 300 301 305 309 310 312 311 308 305 306 305 304 300 299 297 295 292 292 293 286 278 279 278 278 277
243 242 241 241 247 254 260 263 257 257 260 264 267 267 271 276 277 280 280 283 286 287 289 293 298 300 303 306 308 310 307 308 307 304 303 303 302 300 299 297 291 288 287 287 279 277 278 278 278
245 245 243 241 245 254 257 260 262 262 263 264 264 264 266 270 275 279 280 282 284 286 288 289 294 298 301 304 305 306 306 307 307 307 305 305 305 301 299 298 292 290 289 286 283 279 277 276 277
242 243 243 243 247 251 250 255 255 257 262 265 264 265 264 266 271 276 279 281 282 283 285 287 289 293 298 302 303 302 302 303 304 304 303 304 306 305 302 298 296 291 291 288 285 282 277 275 277
242 241 243 247 249 251 249 253 255 255 258 263 267 265 263 265 270 274 277 280 280 279 280 284 288 291 295 300 301 300 299 299 300 300 300 301 305 303 299 295 297 296 295 289 287 285 280 278 281
240 238 240 244 249 255 255 253 254 254 253 257 263 266 265 265 267 271 274 280 280 280 279 283 287 290 293 296 297 297 296 294 295 296 297 299 303 301 295 295 295 296 295 289 288 286 285 284 284
239 236 236 240 247 255 255 251 249 253 254 253 259 265 267 268 268 268 270 276 278 278 279 282 285 288 289 291 292 292 293 290 291 293 295 295 297 298 293 292 294 296 296 290 288 284 286 288 289
236 234 235 239 241 247 250 252 243 244 255 258 257 261 264 267 269 269 273 274 274 276 278 280 282 286 288 289 290 289 290 289 286 289 291 293 293 293 291 289 290 293 295 291 288 286 288 287 285
237 234 231 230 236 244 247 248 254 255 259 265 263 262 262 265 269 271 273 272 273 275 278 279 283 285 286 287 288 288 288 289 288 289 290 290 291 288 289 287 288 290 291 288 288 287 289 286 284
234 231 231 231 231 236 245 246 249 252 254 257 261 264 265 265 267 269 269 271 274 276 279 280 281 284 283 283 285 284 285 287 287 287 290 290 288 287 288 290 288 289 289 287 284 283 285 285 288
232 232 231 234 234 231 235 244 247 253 255 258 264 265 265 263 263 266 268 271 274 276 277 279 281 280 279 280 281 281 283 286 286 285 286 287 286 285 286 289 288 287 287 286 285 282 285 285 286
Height
5897 5898 5899 5900 5900 5900 5901 5900 5899 5898 5897 5897 5896 5895 5894 5894 5894 5895 5892 5890 5889 5888 5887 5887 5886 5885 5885 5884 5883 5883 5882 5881 5880 5879 5879 5878 5878 5878 5877 5877 5877 5877 5877 5877 5877 5877 5877 5877 5878
5897 5899 5899 5900 5900 5900 5901 5899 5898 5898 5898 5897 5896 5895 5894 5893 5893 5892 5891 5890 5889 5888 5887 5886 5886 5885 5884 5884 5883 5882 5882 5881 5880 5879 5878 5878 5877 5877 5877 5876 5876 5876 5877 5877 5877 5878 5878 5878 5878
5897 5898 5899 5900 5899 5900 5900 5899 5899 5898 5898 5897 5896 5895 5895 5894 5893 5892 5891 5890 5889 5888 5887 5886 5885 5884 5883 5883 5882 5882 5881 5880 5880 5879 5878 5877 5877 5876 5876 5875 5875 5876 5876 5877 5877 5877 5878 5878 5878
5897 5898 5900 5901 5901 5901 5901 5899 5899 5899 5898 5897 5896 5896 5894 5894 5893 5892 5890 5889 5888 5887 5886 5885 5884 5883 5883 5882 5882 5881 5881 5880 5879 5878 5877 5877 5876 5875 5874 5873 5873 5875 5876 5877 5877 5877 5878 5878 5878
5896 5898 5899 5900 5901 5901 5901 5900 5899 5899 5898 5896 5896 5895 5894 5894 5892 5891 5890 5889 5888 5886 5885 5884 5883 5883 5882 5882 5881 5881 5880 5879 5879 5878 5877 5876 5875 5874 5872 5869 5871 5874 5875 5876 5876 5877 5877 5877 5878
5895 5897 5898 5899 5900 5902 5899 5899 5898 5898 5897 5896 5896 5894 5893 5893 5892 5891 5890 5888 5887 5886 5885 5883 5882 5882 5881 5881 5880 5880 5879 5878 5878 5877 5876 5875 5875 5874 5872 5871 5871 5874 5875 5876 5876 5876 5876 5877 5877
5895 5895 5897 5898 5899 5901 5899 5898 5898 5897 5897 5896 5895 5894 5893 5892 5891 5890 5889 5888 5887 5886 5884 5883 5882 5881 5881 5881 5880 5879 5878 5878 5877 5876 5875 5874 5874 5873 5872 5872 5872 5873 5874 5875 5875 5875 5875 5876 5876
5893 5895 5895 5897 5900 5900 5898 5897 5897 5897 5896 5896 5895 5893 5892 5891 5890 5890 5889 5888 5887 5885 5884 5883 5882 5881 5880 5880 5879 5878 5877 5877 5876 5875 5874 5873 5873 5872 5872 5872 5872 5873 5873 5874 5874 5874 5874 5875 5875
5892 5894 5894 5897 5899 5899 5897 5897 5896 5895 5895 5895 5893 5892 5892 5891 5890 5889 5889 5887 5886 5884 5883 5883 5882 5881 5880 5879 5878 5877 5876 5876 5875 5874 5873 5872 5872 5871 5871 5871 5871 5872 5872 5873 5873 5873 5873 5874 5874
5891 5892 5894 5895 5896 5897 5896 5896 5894 5894 5894 5893 5892 5890 5890 5890 5889 5889 5888 5887 5885 5884 5882 5882 5881 5880 5879 5878 5877 5876 5876 5875 5874 5873 5872 5871 5871 5870 5870 5870 5870 5870 5871 5871 5871 5872 5872 5872 5873
5889 5890 5891 5892 5893 5893 5894 5894 5893 5893 5893 5893 5892 5890 5889 5889 5889 5888 5887 5886 5885 5884 5883 5881 5880 5879 5878 5877 5876 5875 5874 5873 5872 5871 5870 5869 5869 5869 5868 5868 5868 5868 5869 5869 5870 5870 5870 5871 5872
5887 5888 5889 5890 5890 5890 5891 5891 5891 5891 5892 5890 5889 5888 5888 5888 5888 5887 5886 5885 5884 5883 5881 5880 5879 5878 5877 5876 5875 5874 5873 5871 5870 5869 5868 5868 5867 5867 5867 5867 5867 5867 5867 5867 5868 5868 5868 5869 5870
5884 5886 5886 5887 5887 5888 5888 5889 5890 5890 5890 5888 5888 5888 5888 5887 5886 5885 5884 5883 5882 5881 5880 5879 5879 5877 5876 5875 5874 5873 5871 5870 5869 5868 5866 5866 5865 5865 5865 5865 5865 5865 5865 5865 5866 5866 5867 5867 5867
5881 5882 5883 5884 5885 5885 5886 5887 5887 5887 5888 5887 5887 5887 5886 5885 5885 5884 5883 5882 5881 5880 5879 5878 5877 5876 5875 5874 5872 5871 5870 5868 5867 5866 5864 5864 5863 5863 5863 5863 5863 5863 5863 5863 5864 5864 5865 5865 5865
5878 5879 5881 5882 5883 5883 5884 5884 5885 5885 5885 5885 5885 5885 5884 5884 5883 5882 5881 5880 5879 5879 5878 5877 5876 5875 5874 5872 5871 5869 5868 5867 5865 5864 5863 5862 5861 5861 5861 5861 5861 5861 5861 5861 5862 5862 5862 5863 5863
5875 5876 5878 5879 5880 5881 5882 5883 5883 5882 5882 5883 5882 5882 5882 5882 5881 5880 5879 5878 5877 5877 5877 5876 5875 5874 5872 5871 5869 5868 5866 5865 5863 5862 5861 5860 5859 5859 5859 5859 5859 5859 5859 5859 5860 5860 5860 5861 5861
5872 5873 5875 5877 5877 5878 5878 5879 5880 5879 5880 5880 5880 5879 5880 5879 5878 5877 5877 5876 5876 5875 5875 5874 5873 5872 5871 5869 5868 5866 5865 5862 5861 5860 5859 5858 5857 5857 5857 5857 5856 5856 5857 5857 5857 5858 5858 5858 5859
5870 5872 5873 5875 5875 5875 5875 5876 5876 5876 5877 5877 5877 5877 5877 5876 5875 5875 5875 5874 5874 5873 5873 5872 5871 5870 5869 5867 5866 5864 5862 5860 5859 5858 5857 5856 5856 5855 5855 5854 5854 5854 5854 5854 5855 5855 5855 5856 5856
5866 5868 5870 5872 5873 5872 5872 5873 5873 5873 5872 5874 5875 5874 5873 5872 5872 5872 5872 5872 5872 5871 5871 5870 5869 5868 5867 5865 5863 5861 5860 5858 5857 5856 5855 5854 5854 5853 5853 5853 5852 5852 5852 5852 5852 5853 5853 5853 5854
5861 5863 5866 5868 5869 5869 5868 5869 5870 5870 5869 5871 5872 5871 5870 5870 5868 5868 5869 5869 5869 5869 5868 5867 5866 5865 5864 5862 5861 5859 5857 5856 5855 5854 5853 5852 5851 5851 5851 5851 5850 5850 5850 5850 5850 5850 5850 5851 5851
5857 5859 5861 5864 5864 5864 5865 5865 5866 5866 5865 5868 5868 5868 5868 5867 5865 5865 5866 5866 5866 5866 5865 5865 5864 5863 5861 5860 5858 5857 5855 5854 5853 5852 5851 5850 5849 5849 5849 5848 5848 5848 5848 5847 5847 5847 5848 5848 5848
5852 5854 5856 5858 5859 5860 5862 5861 5862 5862 5862 5863 5864 5864 5865 5864 5863 5862 5862 5863 5862 5862 5862 5861 5861 5860 5859 5857 5856 5854 5853 5852 5851 5850 5849 5848 5847 5847 5846 5846 5845 5845 5845 5845 5845 5845 5845 5845 5845
5847 5849 5851 5852 5853 5855 5856 5858 5859 5859 5858 5859 5859 5860 5861 5860 5860 5859 5859 5859 5859 5859 5858 5858 5858 5857 5856 5854 5853 5852 5851 5850 5849 5848 5847 5846 5845 5845 5844 5843 5843 5843 5843 5842 5842 5842 5842 5842 5842
5841 5844 5845 5847 5849 5849 5851 5853 5854 5855 5855 5855 5854 5855 5856 5855 5856 5856 5855 5855 5855 5855 5855 5854 5854 5854 5852 5851 5850 5849 5848 5847 5847 5846 5845 5844 5843 5843 5842 5841 5841 5840 5840 5840 5840 5839 5839 5839 5839
5835 5838 5841 5842 5843 5844 5847 5848 5849 5850 5851 5851 5850 5850 5851 5851 5852 5852 5851 5851 5851 5850 5850 5851 5851 5850 5849 5848 5847 5846 5845 5845 5844 5843 5843 5842 5841 5841 5840 5840 5839 5838 5838 5838 5837 5837 5837 5837 5837
5830 5833 5836 5838 5841 5843 5843 5843 5845 5845 5845 5846 5846 5845 5847 5847 5848 5848 5847 5848 5847 5847 5847 5847 5847 5846 5845 5845 5844 5843 5842 5842 5841 5841 5840 5839 5839 5838 5838 5837 5837 5836 5835 5835 5835 5834 5834 5834 5834
5824 5827 5831 5834 5835 5837 5838 5838 5839 5840 5840 5840 5840 5841 5842 5843 5843 5843 5843 5843 5843 5843 5843 5843 5842 5842 5841 5841 5840 5839 5839 5838 5838 5838 5837 5837 5836 5836 5835 5835 5834 5834 5833 5833 5832 5832 5832 5832 5832
5819 5822 5825 5827 5829 5832 5835 5835 5834 5834 5836 5836 5835 5836 5837 5838 5838 5839 5839 5839 5839 5839 5839 5839 5837 5837 5838 5837 5836 5836 5835 5835 5835 5835 5834 5834 5833 5833 5832 5832 5831 5831 5830 5830 5830 5830 5829 5829 5829
5813 5816 5818 5821 5824 5827 5830 5833 5829 5829 5830 5831 5831 5831 5832 5834 5834 5835 5835 5835 5834 5835 5834 5833 5833 5833 5833 5833 5833 5832 5832 5832 5831 5831 5831 5831 5830 5829 5829 5829 5828 5828 5827 5827 5827 5827 5827 5827 5826
5807 5809 5813 5815 5817 5819 5822 5827 5823 5824 5825 5826 5827 5826 5827 5829 5830 5830 5830 5831 5831 5831 5831 5830 5829 5830 5830 5829 5829 5829 5828 5828 5828 5827 5827 5827 5827 5826 5826 5825 5825 5825 5824 5824 5824 5824 5824 5824 5823